Date String (YYYY-MM-DD hh:mm:ss) UTC,Instrument flags,Ambient pressure (hPa),Sample flow (lpm),Bypass flow (lpm),Sample temperature (°C),Ambient temperature (°C),ASC tube jacket temperature (°C),LED temperature (°C),Box temperature (°C),Sample RH (%),Span deviation,Mass concentration (μg/m³),Mass concentration (μg/m³),Mass concentration (μg/m³)
DateTimeUTC,F1_M11,P_M11,Q1_M11,Q2_M11,T1_M11,T2_M11,T3_M11,T4_M11,T5_M11,U1_M11,ZSPAN_M11,X0_M11,X2_M11,X1_M11
2022-02-15 01:00:00,,0821.3,4.99,0.00,26.3,25.4,00.0,35.4,28.1,08.6,0000.0,0017.29,0007.51,0006.44
2022-02-15 01:01:00,,0821.3,5.00,0.00,26.3,25.5,00.0,35.4,28.1,08.4,0000.0,0017.50,0007.40,0006.32
2022-02-15 01:02:00,,0821.3,5.01,0.00,26.3,25.5,00.0,35.4,28.2,08.4,0000.0,0017.06,0007.23,0006.19
2022-02-15 01:03:00,,0821.3,4.98,0.00,26.3,25.5,00.0,35.4,28.1,08.6,0000.0,0017.57,0007.11,0006.09
2022-02-15 01:04:00,,0821.3,5.01,0.00,26.3,25.6,00.0,35.4,28.1,08.5,0000.0,0017.60,0007.05,0005.99
2022-02-15 01:05:00,,0821.3,4.98,0.00,26.4,25.6,00.0,35.4,28.1,08.4,0000.0,0018.27,0007.00,0005.92
2022-02-15 01:06:00,,0821.3,5.01,0.00,26.4,25.6,00.0,35.4,28.1,08.3,0000.0,0017.84,0006.91,0005.84
2022-02-15 01:07:00,,0821.3,5.01,0.00,26.3,25.6,00.0,35.4,28.1,08.3,0000.0,0016.71,0006.81,0005.74
2022-02-15 01:08:00,,0821.3,4.99,0.00,26.4,25.6,00.0,35.4,28.1,08.3,0000.0,0016.67,0006.71,0005.62
2022-02-15 01:09:00,,0821.3,5.02,0.00,26.4,25.6,00.0,35.3,28.1,08.3,0000.0,0016.35,0006.53,0005.48
2022-02-15 01:10:00,,0821.4,4.98,0.00,26.4,25.6,00.0,35.3,28.1,08.5,0000.0,0016.06,0006.45,0005.42
2022-02-15 01:11:00,,0821.4,5.01,0.00,26.4,25.6,00.0,35.3,28.1,08.2,0000.0,0016.07,0006.43,0005.40
2022-02-15 01:12:00,,0821.4,4.99,0.00,26.4,25.6,00.0,35.3,28.2,08.2,0000.0,0016.44,0006.41,0005.39
2022-02-15 01:13:00,,0821.4,4.99,0.00,26.4,25.6,00.0,35.3,28.2,09.0,0000.0,0016.15,0006.41,0005.40
2022-02-15 01:14:00,,0821.4,5.01,0.00,26.3,25.6,00.0,35.3,28.1,10.3,0000.0,0016.02,0006.53,0005.50
2022-02-15 01:15:00,,0821.3,4.99,0.00,26.3,25.5,00.0,35.3,28.1,09.8,0000.0,0016.16,0006.56,0005.57
2022-02-15 01:16:00,,0821.3,5.01,0.00,26.3,25.5,00.0,35.3,28.1,09.2,0000.0,0015.52,0006.56,0005.60
2022-02-15 01:17:00,,0821.3,4.99,0.00,26.3,25.5,00.0,35.3,28.1,08.3,0000.0,0014.68,0006.53,0005.61
2022-02-15 01:18:00,,0821.4,5.00,0.00,26.3,25.5,00.0,35.3,28.1,08.4,0000.0,0014.85,0006.49,0005.57
2022-02-15 01:19:00,,0821.4,5.01,0.00,26.3,25.4,00.0,35.3,28.0,10.6,0000.0,0015.03,0006.55,0005.65
2022-02-15 01:20:00,,0821.4,4.99,0.00,26.2,25.4,00.0,35.3,27.9,10.9,0000.0,0015.64,0006.69,0005.79
2022-02-15 01:21:00,,0821.3,5.00,0.00,26.2,25.3,00.0,35.3,27.8,10.9,0000.0,0016.72,0006.86,0005.91
2022-02-15 01:22:00,,0821.3,4.99,0.00,26.1,25.2,00.0,35.3,27.8,10.9,0000.0,0017.01,0007.01,0006.05
2022-02-15 01:23:00,,0821.3,5.02,0.00,26.1,25.2,00.0,35.2,27.8,10.7,0000.0,0016.50,0007.20,0006.20
2022-02-15 01:24:00,,0821.3,4.99,0.00,26.1,25.3,00.0,35.2,27.9,10.2,0000.0,0016.11,0007.27,0006.30
2022-02-15 01:25:00,,0821.3,5.00,0.00,26.1,25.2,00.0,35.2,27.8,10.2,0000.0,0016.42,0007.30,0006.32
2022-02-15 01:26:00,,0821.3,5.01,0.00,26.1,25.3,00.0,35.2,27.8,10.1,0000.0,0016.51,0007.36,0006.34
2022-02-15 01:27:00,,0821.4,4.99,0.00,26.1,25.3,00.0,35.2,27.9,09.7,0000.0,0016.42,0007.39,0006.38
2022-02-15 01:28:00,,0821.3,5.00,0.00,26.1,25.3,00.0,35.2,27.9,10.2,0000.0,0016.45,0007.45,0006.46
2022-02-15 01:29:00,,0821.3,5.00,0.00,26.1,25.3,00.0,35.2,27.9,10.6,0000.0,0016.86,0007.61,0006.60
2022-02-15 01:30:00,,0821.2,5.01,0.00,26.1,25.3,00.0,35.2,27.9,10.6,0000.0,0016.78,0007.67,0006.67
2022-02-15 01:31:00,,0821.2,5.00,0.00,26.1,25.3,00.0,35.1,27.9,10.7,0000.0,0016.24,0007.69,0006.70
2022-02-15 01:32:00,,0821.2,4.99,0.00,26.1,25.4,00.0,35.2,27.9,10.7,0000.0,0015.32,0007.72,0006.71
2022-02-15 01:33:00,,0821.2,5.00,0.00,26.1,25.4,00.0,35.1,27.9,09.7,0000.0,0015.02,0007.68,0006.69
2022-02-15 01:34:00,,0821.2,5.01,0.00,26.1,25.4,00.0,35.1,27.9,08.4,0000.0,0014.75,0007.54,0006.59
2022-02-15 01:35:00,,0821.2,5.01,0.00,26.1,25.4,00.0,35.1,27.9,09.5,0000.0,0014.79,0007.55,0006.58
2022-02-15 01:36:00,,0821.2,5.00,0.00,26.1,25.4,00.0,35.1,27.9,09.9,0000.0,0014.08,0007.54,0006.62
2022-02-15 01:37:00,,0821.1,4.99,0.00,26.1,25.4,00.0,35.1,27.9,09.7,0000.0,0013.56,0007.57,0006.65
2022-02-15 01:38:00,,0821.1,4.98,0.00,26.1,25.4,00.0,35.1,27.9,07.0,0000.0,0013.32,0007.44,0006.51
2022-02-15 01:39:00,,0821.1,5.00,0.00,26.1,25.4,00.0,35.1,27.9,06.0,0000.0,0012.82,0007.10,0006.21
2022-02-15 01:40:00,,0821.2,5.00,0.00,26.1,25.4,00.0,35.1,27.9,09.5,0000.0,0012.65,0007.00,0006.12
2022-02-15 01:41:00,,0821.2,4.99,0.00,26.1,25.3,00.0,35.1,27.8,10.0,0000.0,0013.37,0007.02,0006.13
2022-02-15 01:42:00,,0821.2,5.01,0.00,26.0,25.2,00.0,35.1,27.7,10.6,0000.0,0013.57,0007.04,0006.16
2022-02-15 01:43:00,,0821.4,5.00,0.00,26.0,25.1,00.0,35.1,27.6,10.8,0000.0,0013.67,0007.07,0006.20
2022-02-15 01:44:00,,0821.3,4.99,0.00,25.9,25.0,00.0,35.1,27.6,10.9,0000.0,0013.94,0007.12,0006.25
2022-02-15 01:45:00,,0821.3,5.02,0.00,25.9,25.0,00.0,35.0,27.5,11.2,0000.0,0014.33,0007.31,0006.41
2022-02-15 01:46:00,,0821.3,4.99,0.00,25.8,24.9,00.0,35.0,27.5,11.0,0000.0,0014.36,0007.46,0006.52
2022-02-15 01:47:00,,0821.2,4.99,0.00,25.8,24.9,00.0,35.0,27.4,10.7,0000.0,0014.40,0007.50,0006.54
2022-02-15 01:48:00,,0821.2,5.02,0.00,25.8,24.9,00.0,35.0,27.4,11.3,0000.0,0015.14,0007.55,0006.58
2022-02-15 01:49:00,,0821.3,4.99,0.00,25.7,24.9,00.0,34.9,27.4,11.4,0000.0,0015.80,0007.76,0006.79
2022-02-15 01:50:00,,0821.2,4.99,0.00,25.7,24.9,00.0,34.9,27.4,11.5,0000.0,0016.50,0008.18,0007.18
2022-02-15 01:51:00,,0821.2,5.00,0.00,25.7,24.8,00.0,34.9,27.3,11.2,0000.0,0016.86,0008.45,0007.42
2022-02-15 01:52:00,,0821.2,4.99,0.00,25.7,24.8,00.0,34.9,27.3,11.2,0000.0,0017.34,0008.51,0007.46
2022-02-15 01:53:00,,0821.1,4.99,0.00,25.6,24.8,00.0,34.8,27.3,10.8,0000.0,0017.25,0008.53,0007.48
2022-02-15 01:54:00,,0821.1,5.02,0.00,25.6,24.7,00.0,34.8,27.3,10.6,0000.0,0017.57,0008.48,0007.46
2022-02-15 01:55:00,,0821.1,4.99,0.00,25.6,24.7,00.0,34.8,27.2,10.6,0000.0,0017.21,0008.41,0007.45
2022-02-15 01:56:00,,0821.1,4.99,0.00,25.5,24.6,00.0,34.8,27.2,11.2,0000.0,0017.29,0008.41,0007.46
2022-02-15 01:57:00,,0821.1,5.00,0.00,25.5,24.6,00.0,34.7,27.1,11.2,0000.0,0018.39,0008.38,0007.47
2022-02-15 01:58:00,,0821.1,5.00,0.00,25.4,24.6,00.0,34.7,27.1,10.9,0000.0,0019.28,0008.42,0007.51
2022-02-15 01:59:00,,0821.1,5.01,0.00,25.4,24.5,00.0,34.7,27.1,11.0,0000.0,0018.97,0008.44,0007.52
